Weather History for Franklin, VA

Change the Weather History Date:

Monday, January 21, 2013

  Actual Average (KSFQ) Record (KSFQ)
Temperature  
Mean Temperature 44 °F -  
Max Temperature 59 °F 46 °F 72 °F (1959)
Min Temperature 28 °F 28 °F -5 °F (1985)
Degree Days  
Heating Degree Days 22    
Moisture  
Dew Point 30 °F    
Average Humidity 64    
Maximum Humidity 100    
Minimum Humidity 29    
Precipitation  
Precipitation 0.00 in - - ()
Sea Level Pressure  
Sea Level Pressure 29.98 in    
Wind  
Wind Speed 3 mph (SW)    
Max Wind Speed 12 mph    
Max Gust Speed -    
Visibility 10 miles    
Events      
Averages and records for this station are not official NWS values.
T = Trace of Precipitation, MM = Missing Value Source: NWS Daily Summary

Daily Weather History Graph

Daily Weather History Graph

Search for Another Location

Airport:

Trip Planner

Search our weather history database for the weather conditions in past years. The results will help you decide how hot, cold, wet, or windy it might be!

Date:

Astronomy

Jan. 21, 2013 Rise Set
Actual Time 7:16 AM EST 5:21 PM EST
Civil Twilight 6:48 AM EST 5:49 PM EST
Nautical Twilight 6:17 AM EST 6:21 PM EST
Astronomical Twilight 5:46 AM EST 6:51 PM EST
Moon 1:00 PM EST (1/21) 2:42 AM EST (1/21)
Length of Visible Light 11h 00m
Length of Day
10h 05m
Waxing Gibbous, 75% of the Moon is Illuminated
Jan 21
Waxing Gibbous
Jan 26
Full
Feb 3
Last Quarter
Feb 10
New
Feb 17
First Quarter

Hourly Weather History & Observations

Time (EST) Temp. Windchill Dew Point Humidity Pressure Visibility Wind Dir Wind Speed Gust Speed Precip Events Conditions
12:15 AM 35.6 °F - 35.6 °F 100% 30.06 in 10.0 mi Calm Calm - N/A   Clear
12:35 AM 33.8 °F - 32.0 °F 93% 30.07 in 10.0 mi Calm Calm - N/A   Clear
12:55 AM 35.6 °F - 33.8 °F 93% 30.07 in 10.0 mi Calm Calm - N/A   Clear
1:15 AM 33.8 °F - 32.0 °F 93% 30.08 in 10.0 mi Calm Calm - N/A   Clear
1:35 AM 33.8 °F - 33.8 °F 100% 30.09 in 10.0 mi Calm Calm - N/A   Clear
1:55 AM 33.8 °F - 30.2 °F 87% 30.09 in 10.0 mi Calm Calm - N/A   Clear
2:15 AM 33.8 °F - 33.8 °F 100% 30.09 in 10.0 mi Calm Calm - N/A   Clear
2:35 AM 32.0 °F - 32.0 °F 100% 30.09 in 10.0 mi Calm Calm - N/A   Clear
2:55 AM 32.0 °F - 32.0 °F 100% 30.09 in 10.0 mi Calm Calm - N/A   Clear
3:15 AM 30.2 °F - 30.2 °F 100% 30.09 in 10.0 mi Calm Calm - N/A   Clear
3:35 AM 30.2 °F - 30.2 °F 100% 30.09 in 10.0 mi Calm Calm - N/A   Clear
3:55 AM 30.2 °F - 30.2 °F 100% 30.08 in 10.0 mi Calm Calm - N/A   Clear
4:15 AM 30.2 °F - 30.2 °F 100% 30.08 in 10.0 mi Calm Calm - N/A   Clear
4:35 AM 30.2 °F - 30.2 °F 100% 30.08 in 10.0 mi Calm Calm - N/A   Clear
4:55 AM 30.2 °F - 30.2 °F 100% 30.08 in 10.0 mi Calm Calm - N/A   Clear
5:15 AM 28.4 °F - 28.4 °F 100% 30.09 in 10.0 mi Calm Calm - N/A   Clear
5:35 AM 30.2 °F - 30.2 °F 100% 30.09 in 10.0 mi Calm Calm - N/A   Clear
5:55 AM 28.4 °F - 28.4 °F 100% 30.08 in 10.0 mi Calm Calm - N/A   Clear
6:15 AM 28.4 °F - 28.4 °F 100% 30.08 in 10.0 mi Calm Calm - N/A   Clear
6:35 AM 28.4 °F - 28.4 °F 100% 30.08 in 10.0 mi Calm Calm - N/A   Clear
6:55 AM 28.4 °F - 28.4 °F 100% 30.08 in 10.0 mi Calm Calm - N/A   Clear
7:15 AM 28.4 °F - 28.4 °F 100% 30.08 in 10.0 mi Calm Calm - N/A   Clear
7:35 AM 28.4 °F - 28.4 °F 100% 30.08 in 10.0 mi Calm Calm - N/A   Clear
7:55 AM 30.2 °F - 30.2 °F 100% 30.08 in 10.0 mi Calm Calm - N/A   Clear
8:15 AM 30.2 °F - 30.2 °F 100% 30.09 in 10.0 mi Calm Calm - N/A   Clear
8:35 AM 33.8 °F - 33.8 °F 100% 30.09 in 10.0 mi Calm Calm - N/A   Clear
8:55 AM 37.4 °F - 33.8 °F 87% 30.09 in 10.0 mi Calm Calm - N/A   Clear
9:15 AM 39.2 °F - 33.8 °F 81% 30.09 in 10.0 mi Calm Calm - N/A   Clear
9:35 AM 44.6 °F 43.1 °F 33.8 °F 66% 30.09 in 10.0 mi East 3.5 mph - N/A   Clear
9:55 AM 46.4 °F 43.5 °F 32.0 °F 57% 30.09 in 10.0 mi SE 5.8 mph - N/A   Clear
10:15 AM 48.2 °F - 30.2 °F 50% 30.08 in 10.0 mi ESE 5.8 mph - N/A   Clear
10:35 AM 50.0 °F - 32.0 °F 50% 30.07 in 10.0 mi SSE 8.1 mph - N/A   Clear
10:55 AM 51.8 °F - 32.0 °F 47% 30.06 in 10.0 mi SSE 6.9 mph - N/A   Clear
11:15 AM 51.8 °F - 33.8 °F 50% 30.04 in 10.0 mi SSE 9.2 mph - N/A   Clear
11:35 AM 53.6 °F - 33.8 °F 47% 30.03 in 10.0 mi SSE 9.2 mph - N/A   Clear
11:55 AM 55.4 °F - 33.8 °F 44% 30.02 in 10.0 mi South 5.8 mph - N/A   Clear
12:15 PM 55.4 °F - 33.8 °F 44% 30.00 in 10.0 mi South 8.1 mph - N/A   Clear
12:35 PM 55.4 °F - 33.8 °F 44% 29.98 in 10.0 mi SSW 8.1 mph - N/A   Clear
12:55 PM 57.2 °F - 32.0 °F 38% 29.97 in 10.0 mi SSW 8.1 mph - N/A   Scattered Clouds
1:15 PM 57.2 °F - 30.2 °F 36% 29.95 in 10.0 mi SSW 9.2 mph - N/A   Scattered Clouds
1:35 PM 57.2 °F - 30.2 °F 36% 29.93 in 10.0 mi SSW 8.1 mph - N/A   Clear
1:55 PM 57.2 °F - 30.2 °F 36% 29.92 in 10.0 mi WSW 5.8 mph - N/A   Clear
2:15 PM 57.2 °F - 30.2 °F 36% 29.91 in 10.0 mi South 8.1 mph - N/A   Clear
2:35 PM 59.0 °F - 30.2 °F 34% 29.90 in 10.0 mi SSW 9.2 mph - N/A   Clear
2:55 PM 59.0 °F - 28.4 °F 31% 29.89 in 10.0 mi SW 8.1 mph - N/A   Clear
3:15 PM 59.0 °F - 28.4 °F 31% 29.87 in 10.0 mi SSW 9.2 mph - N/A   Clear
3:35 PM 59.0 °F - 28.4 °F 31% 29.86 in 10.0 mi SW 8.1 mph - N/A   Clear
3:55 PM 59.0 °F - 26.6 °F 29% 29.86 in 10.0 mi SW 6.9 mph - N/A   Clear
4:15 PM 57.2 °F - 26.6 °F 31% 29.85 in 10.0 mi SW 10.4 mph - N/A   Clear
4:35 PM 57.2 °F - 26.6 °F 31% 29.84 in 10.0 mi SSW 11.5 mph - N/A   Clear
4:55 PM 57.2 °F - 26.6 °F 31% 29.83 in 10.0 mi SW 6.9 mph - N/A   Clear
5:15 PM 55.4 °F - 26.6 °F 33% 29.83 in 10.0 mi SW 3.5 mph - N/A   Clear
5:35 PM 53.6 °F - 28.4 °F 38% 29.82 in 10.0 mi SSW 4.6 mph - N/A   Clear
5:55 PM 51.8 °F - 30.2 °F 44% 29.83 in 10.0 mi SW 4.6 mph - N/A   Clear
6:15 PM 53.6 °F - 28.4 °F 38% 29.83 in 10.0 mi Calm Calm - N/A   Clear
6:35 PM 51.8 °F - 30.2 °F 44% 29.83 in 10.0 mi SW 5.8 mph - N/A   Clear
6:55 PM 50.0 °F - 30.2 °F 47% 29.83 in 10.0 mi SSW 5.8 mph - N/A   Clear
7:15 PM 50.0 °F - 30.2 °F 47% 29.83 in 10.0 mi SSW 5.8 mph - N/A   Clear
7:35 PM 48.2 °F - 30.2 °F 50% 29.83 in 10.0 mi SW 8.1 mph - N/A   Clear
7:55 PM 50.0 °F - 30.2 °F 47% 29.83 in 10.0 mi SSW 8.1 mph - N/A   Clear
8:15 PM 50.0 °F - 30.2 °F 47% 29.83 in 10.0 mi SW 5.8 mph - N/A   Clear
8:35 PM 50.0 °F - 30.2 °F 47% 29.84 in 10.0 mi West 6.9 mph - N/A   Clear
8:55 PM 48.2 °F - 30.2 °F 50% 29.87 in 10.0 mi West 8.1 mph - N/A   Clear
9:15 PM 48.2 °F - 30.2 °F 50% 29.88 in 10.0 mi WNW 11.5 mph - N/A   Clear
9:35 PM 48.2 °F - 28.4 °F 46% 29.88 in 10.0 mi WNW 8.1 mph - N/A   Clear
9:55 PM 46.4 °F 41.9 °F 28.4 °F 50% 29.89 in 10.0 mi WNW 9.2 mph - N/A   Clear
10:15 PM 46.4 °F 41.1 °F 26.6 °F 46% 29.89 in 10.0 mi WNW 11.5 mph - N/A   Clear
10:35 PM 46.4 °F 42.4 °F 24.8 °F 43% 29.90 in 10.0 mi WNW 8.1 mph - N/A   Clear
10:55 PM 44.6 °F 40.2 °F 23.0 °F 43% 29.91 in 10.0 mi West 8.1 mph - N/A   Clear
11:35 PM 44.6 °F 40.2 °F 19.4 °F 37% 29.92 in 10.0 mi West 8.1 mph - N/A   Clear
11:55 PM 44.6 °F 39.2 °F 17.6 °F 34% 29.92 in 10.0 mi West 10.4 mph - N/A   Clear